Find Starlink 11350

NORAD ID: 61540 Int'l Des: 2024-184 Owner: SPXS Country: US Constellation: starlink operational
LEOCIRCULAR

当前视图

正在加载3D地球...

About Starlink 11350

Starlink 11350 (NORAD 61540) is a starlink constellation satellite (v2 mini d2c) launched Oct 15, 2024 by SPXS of US. It operates in LEO, CIRCULAR orbit with a mass of 960.00 kg.

关于 Starlink 11350

正在加载描述...

即将过境

Passes for default location (London). Set your location on the main map for personalized predictions.

高度历史

Loading altitude history...

两行轨道根数

1 61540U 24184J 26193.80838625 .00001686 00000-0 18772-4 0 9996
2 61540 53.1589 339.1032 0000853 91.1190 268.9926 15.69708681100078
Epoch: Jul 12, 2026 • Age: 6 hours

当前状态

高度 372.4 km
远地点 / 近地点 N/A
速度 7.69 km/s
星下点 -37.87°S, 111.97°W
发射日期 Oct 15, 2024
运行时间 1.7 years
类型 internet

技术详情

分类 Payload
质量 960.00 kg
干质量 910.00 kg
总质量 960.00 kg
长度 0.30 m
直径 4.10 m
跨度 29.00 m
形状 Box + pan
制造商 SPXS
平台类型 Starlink V2MD
阶段状态 In Orbit
所有者/国家 SPXS/US

Most Searched